Terminal Aerodrome Forecast
Issued by NWS

Home | Current Version | Previous Version | Text Only | Print | Product List | Glossary On
Versions: 1 2 3 4 5 6 7 8 9 10 11 12 13 14 15 16 17 18
000
FTUS46 KHNX 310407 AAA
TAFMER
TAF AMD
KMER 310407Z 3104/3124 00000KT 4SM BR SKC
     FM310800 00000KT 1SM BR SKC
     FM311000 00000KT 1/4SM FG VV001
     FM312000 00000KT 1 1/2SM BR BKN004
     FM312200 VRB03KT 4SM HZ SKC=

USA.gov is the U.S. government's official web portal to all federal, state and local government web resources and services.